[[{"header":{"parameterUnit":"m.s-1","parameterCategory":1,"la1":30.2991,"la2":30.254,"lo1":-89.0895,"lo2":-89.0444,"dy":0.0017,"dx":0.0017,"nx":28,"ny":28,"refTime":"2025-11-26T09:00:00:Z","depth":0,"parameterNumber":2,"parameterNumberName":"U-component_of_WINDS"},"data":[0,0,0,0,0,0,0,0,0,0,0,0,0,0,0,0,0,0,0,0,0,0,0,0,0,0,0,0,0,0,0,0,0,0,0,0,0,0,0,0,0,0,0,0,0,0,0,0,0,0,0,0,0,0,0,0,0,0,1.1666,1.1666,0,1.1667,1.1667,1.1667,1.1667,1.1667,1.1667,1.1667,1.1666,1.1666,1.1666,0,0,0,0,0,0,0,0,0,0,0,0,0,1.1665,1.1665,1.1666,1.1666,1.1666,1.1667,1.1667,1.1667,1.1667,1.1667,1.1667,1.1667,1.1666,1.1666,1.1666,0,0,0,0,0,0,0,0,0,0,0,0,0,1.1665,1.1665,1.1666,1.1667,1.1667,1.1667,1.1667,1.1667,1.1667,1.1667,1.1667,1.1667,1.1666,1.1666,1.1666,1.1665,0,0,1.1666,1.1666,0,0,0,0,0,0,0,0,1.1665,1.1665,1.1666,1.1666,1.1667,1.1667,1.1666,1.1666,1.1667,1.1667,1.1667,1.1668,1.1666,1.1666,1.1666,1.1665,1.1665,1.1666,1.1666,1.1666,1.1666,0,0,0,0,0,0,0,1.1665,1.1665,1.1666,1.1666,1.1667,1.1667,1.1667,1.1666,1.1666,1.1667,1.1667,1.1667,1.1666,1.1666,1.1666,1.1665,1.1666,1.1666,1.1666,1.1666,1.1665,1.1665,0,0,0,0,0,0,1.1665,1.1665,1.1666,1.1666,1.1666,1.1667,1.1667,1.1667,1.1667,1.1667,1.1667,1.1667,1.1666,1.1666,1.1666,1.1666,1.1666,1.1666,1.1666,1.1665,1.1665,1.1665,0,0,0,0,0,0,1.1665,1.1666,1.1666,1.1666,1.1666,1.1667,1.1667,1.1667,1.1667,1.1667,1.1667,1.1667,1.1667,1.1666,1.1666,1.1666,1.1666,1.1666,1.1665,1.1665,1.1665,1.1664,0,0,0,0,0,0,1.1665,1.1665,1.1665,1.1666,1.1666,1.1666,1.1667,1.1667,1.1667,1.1667,1.1667,1.1667,1.1667,1.1666,1.1666,1.1666,1.1666,1.1665,1.1665,1.1665,1.1664,1.1664,1.1664,0,0,0,0,0,1.1665,1.1664,1.1665,1.1665,1.1666,1.1666,1.1666,1.1666,1.1667,1.1666,1.1667,1.1667,1.1666,1.1666,1.1666,1.1665,1.1665,1.1665,1.1665,1.1664,1.1664,1.1664,0,0,0,0,0,0,1.1662,1.1664,1.1665,1.1664,1.1665,1.1666,1.1665,1.1666,1.1666,1.1666,1.1666,1.1666,1.1666,1.1666,1.1666,1.1665,1.1665,1.1665,1.1665,1.1665,1.1665,1.1665,1.1666,0,0,0,0,0,1.1661,1.1662,1.1664,1.1663,1.1663,1.1664,1.1664,1.1665,1.1665,1.1665,1.1666,1.1666,1.1666,1.1666,1.1665,1.1665,1.1665,1.1665,1.1665,1.1665,1.1664,1.1665,1.1665,1.1665,1.1665,1.1665,0,0,1.166,1.1661,1.1661,1.1662,1.1663,1.1663,1.1664,1.1664,1.1665,1.1665,1.1665,1.1666,1.1666,1.1665,1.1665,1.1665,1.1665,1.1665,1.1665,1.1664,1.1665,1.1665,1.1665,1.1665,1.1665,1.1665,0,0,1.1656,1.1658,1.1657,1.1658,1.166,1.1661,1.1661,1.1663,1.1663,1.1663,1.1664,1.1665,1.1664,1.1665,1.1665,1.1665,1.1665,1.1665,1.1664,1.1665,1.1665,1.1665,1.1665,1.1665,1.1665,1.1665,1.1665,0,1.1654,1.1654,1.1657,1.1657,1.1658,1.166,1.166,1.1661,1.1662,1.1663,1.1663,1.1664,1.1664,1.1664,1.1665,1.1665,1.1665,1.1664,1.1665,1.1665,1.1665,1.1665,1.1665,1.1665,1.1665,1.1665,1.1665,0,1.1651,1.1652,1.1652,1.1654,1.1655,1.1655,1.1657,1.1658,1.1659,1.1661,1.1661,1.1662,1.1663,1.1663,1.1664,1.1664,1.1664,1.1665,1.1665,1.1665,1.1665,1.1665,1.1665,1.1665,1.1665,1.1665,0,0,1.1644,1.1649,1.1649,1.1651,1.1654,1.1654,1.1655,1.1657,1.1657,1.1659,1.1659,1.166,1.1661,1.1662,1.1663,1.1663,1.1664,1.1664,1.1664,1.1664,1.1665,1.1664,1.1664,1.1664,1.1664,1.1664,1.1664,0,1.1641,1.1643,1.1646,1.1646,1.1648,1.1651,1.1652,1.1654,1.1656,1.1657,1.1659,1.1659,1.1661,1.1661,1.1662,1.1663,1.1664,1.1664,1.1665,1.1665,1.1664,1.1664,1.1662,1.1662,1.1665,1.1665,1.1665,0,1.1637,1.1639,1.164,1.1645,1.1645,1.1646,1.1649,1.165,1.1653,1.1654,1.1656,1.1657,1.1659,1.166,1.1662,1.1662,1.1663,1.1664,1.1664,1.1663,1.1664,1.1662,1.1662,1.1662,1.1665,1.1665,1.1665,0,1.1631,1.1635,1.1636,1.1638,1.1643,1.1643,1.1645,1.1648,1.165,1.1652,1.1653,1.1655,1.1656,1.1658,1.1661,1.1661,1.1663,1.1664,1.1664,1.1664,1.1663,1.1663,1.1662,1.1665,1.1665,1.1665,1.1665,0,1.1627,1.1627,1.1634,1.1635,1.1636,1.164,1.1641,1.1643,1.1647,1.1648,1.1651,1.1652,1.1656,1.1658,1.166,1.1662,1.1662,1.1663,1.1664,1.1663,1.1662,1.1662,1.1662,1.1665,1.1665,1.1665,1.1665,0,1.162,1.1624,1.1626,1.1632,1.1633,1.1634,1.1639,1.164,1.1643,1.1645,1.1645,1.165,1.1652,1.1656,1.1659,1.166,1.1662,1.1663,1.1661,1.1661,1.1661,1.1661,1.1659,1.166,1.1663,1.1663,1.1663,0,1.1616,1.1617,1.1623,1.1625,1.1627,1.163,1.1632,1.1637,1.1639,1.1643,1.1644,1.1647,1.1649,1.1654,1.1657,1.166,1.1661,1.166,1.1661,1.166,1.166,1.166,1.166,1.1659,1.1659,1.1659,1.1659,0,1.1609,1.1612,1.1615,1.162,1.1622,1.1625,1.1629,1.163,1.1636,1.1638,1.1641,1.1643,1.1648,1.1651,1.1655,1.1657,1.1659,1.1659,1.1659,1.1658,1.1657,1.1657,1.166,1.1659,1.1659,1.1659,1.1659,1.1659,1.1604,1.1605,1.161,1.1614,1.1617,1.1621,1.1623,1.1627,1.163,1.1634,1.1637,1.1641,1.1645,1.1651,1.1653,1.1656,1.1656,1.1656,1.1656,1.1656,1.1656,1.1657,1.1656,1.1656,1.1656,1.1656,1.1656,0,1.1597,1.1601,1.1604,1.161,1.1613,1.1617,1.1621,1.1623,1.1626,1.1631,1.1634,1.1638,1.1642,1.1647,1.1651,1.1652,1.1653,1.1653,1.1652,1.1653,1.1655,1.1654,1.1652,1.1652,1.1652,1.1652,1.1652,1.1652,1.1594,1.1596,1.16,1.1605,1.1609,1.1613,1.1615,1.1619,1.1623,1.1628,1.1631,1.1635,1.1639,1.1644,1.1648,1.1649,1.165,1.165,1.1651,1.1653,1.1653,1.1653,1.1653,1.165,1.165,1.1649,1.1649,1.1649]},{"header":{"parameterUnit":"m.s-1","parameterCategory":1,"la1":30.2991,"la2":30.254,"lo1":-89.0895,"lo2":-89.0444,"dy":0.0017,"dx":0.0017,"nx":28,"ny":28,"refTime":"2025-11-26T09:00:00:Z","depth":0,"parameterNumber":3,"parameterNumberName":"V-component_of_WINDS"},"data":[0,0,0,0,0,0,0,0,0,0,0,0,0,0,0,0,0,0,0,0,0,0,0,0,0,0,0,0,0,0,0,0,0,0,0,0,0,0,0,0,0,0,0,0,0,0,0,0,0,0,0,0,0,0,0,0,0,0,-6.3709,-6.3711,0,-6.386,-6.3862,-6.3864,-6.3779,-6.3775,-6.3771,-6.3767,-6.3916,-6.3924,-6.3931,0,0,0,0,0,0,0,0,0,0,0,0,0,-6.3341,-6.3348,-6.3709,-6.3711,-6.3713,-6.386,-6.3862,-6.3864,-6.378,-6.3775,-6.377,-6.3765,-6.3913,-6.3923,-6.3932,0,0,0,0,0,0,0,0,0,0,0,0,0,-6.3497,-6.3351,-6.3709,-6.3689,-6.3688,-6.386,-6.3862,-6.3865,-6.3781,-6.3775,-6.3768,-6.3763,-6.391,-6.3922,-6.3933,-6.4131,0,0,-6.3969,-6.3974,0,0,0,0,0,0,0,0,-6.3489,-6.3511,-6.369,-6.369,-6.369,-6.3795,-6.3787,-6.3954,-6.3782,-6.3746,-6.3767,-6.3759,-6.388,-6.3894,-6.3936,-6.4138,-6.4145,-6.397,-6.3978,-6.3983,-6.3986,0,0,0,0,0,0,0,-6.3478,-6.3504,-6.3769,-6.3692,-6.3693,-6.367,-6.3685,-6.3818,-6.3846,-6.3748,-6.3743,-6.3762,-6.3879,-6.3925,-6.3939,-6.4147,-6.397,-6.398,-6.3988,-6.3992,-6.4519,-6.4525,0,0,0,0,0,0,-6.3469,-6.3495,-6.3764,-6.3773,-6.3572,-6.3682,-6.3699,-6.3767,-6.3844,-6.385,-6.3767,-6.3757,-6.3908,-6.3925,-6.3944,-6.4181,-6.3982,-6.3994,-6.4,-6.4512,-6.452,-6.4528,0,0,0,0,0,0,-6.3462,-6.3494,-6.3758,-6.3633,-6.3665,-6.3695,-6.3772,-6.3774,-6.3819,-6.3859,-6.3862,-6.3809,-6.3904,-6.3927,-6.4086,-6.4185,-6.3999,-6.401,-6.4504,-6.4514,-6.4524,-6.4657,0,0,0,0,0,0,-6.3451,-6.3492,-6.3569,-6.3635,-6.3672,-6.39,-6.3778,-6.3781,-6.3841,-6.3829,-6.3899,-6.3905,-6.39,-6.4069,-6.4098,-6.4198,-6.4019,-6.4495,-6.4509,-6.4521,-6.4644,-6.467,-6.4693,0,0,0,0,0,-6.3439,-6.3599,-6.3573,-6.3606,-6.3769,-6.3905,-6.3926,-6.392,-6.3849,-6.3926,-6.3951,-6.3902,-6.4169,-6.4086,-6.4117,-6.4223,-6.4489,-6.4505,-6.452,-6.4632,-6.4665,-6.4693,0,0,0,0,0,0,-6.3541,-6.3607,-6.3579,-6.3766,-6.3831,-6.3891,-6.3988,-6.3954,-6.4039,-6.4025,-6.4011,-6.4028,-6.4193,-6.4223,-6.4129,-6.4418,-6.4318,-6.434,-6.4392,-6.4424,-6.4448,-6.4437,-6.4029,0,0,0,0,0,-6.3586,-6.3693,-6.3744,-6.3904,-6.3938,-6.3958,-6.4016,-6.4006,-6.4072,-6.4098,-6.4135,-6.4199,-6.4297,-6.4362,-6.4454,-6.4647,-6.4661,-6.4735,-6.476,-6.478,-6.48,-6.4904,-6.4937,-6.4579,-6.4579,-6.4578,0,0,-6.3678,-6.3728,-6.3796,-6.3926,-6.3975,-6.4084,-6.3981,-6.4101,-6.4182,-6.4116,-6.4269,-6.4298,-6.4368,-6.4545,-6.4624,-6.4575,-6.4902,-6.48,-6.4816,-6.4825,-6.4923,-6.4957,-6.4987,-6.4589,-6.4587,-6.4586,0,0,-6.3903,-6.3952,-6.4091,-6.4142,-6.4218,-6.423,-6.4264,-6.4329,-6.4347,-6.45,-6.4453,-6.4547,-6.4717,-6.4769,-6.4818,-6.5063,-6.5022,-6.5093,-6.5223,-6.5324,-6.5353,-6.5378,-6.5465,-6.5497,-6.5113,-6.5113,-6.5113,0,-6.4008,-6.4174,-6.4165,-6.429,-6.4348,-6.4296,-6.4435,-6.4485,-6.4586,-6.4627,-6.4571,-6.4783,-6.4826,-6.5015,-6.5075,-6.5116,-6.5152,-6.5085,-6.535,-6.5375,-6.5398,-6.5481,-6.5514,-6.5121,-6.512,-6.512,-6.5119,0,-6.4299,-6.4414,-6.4516,-6.4619,-6.4688,-6.4819,-6.483,-6.49,-6.4884,-6.4902,-6.5058,-6.5108,-6.521,-6.5254,-6.5238,-6.544,-6.5408,-6.5351,-6.525,-6.544,-6.5518,-6.555,-6.5133,-6.513,-6.5128,-6.5126,0,0,-6.4592,-6.4689,-6.4727,-6.4773,-6.4853,-6.4941,-6.5069,-6.5171,-6.5232,-6.5304,-6.541,-6.5555,-6.5504,-6.5559,-6.5548,-6.5638,-6.5829,-6.557,-6.5571,-6.5616,-6.6054,-6.6096,-6.6133,-6.5801,-6.5807,-6.5812,-6.6048,0,-6.4823,-6.505,-6.5046,-6.5256,-6.5361,-6.5313,-6.5424,-6.5485,-6.5505,-6.5595,-6.5616,-6.5719,-6.5643,-6.5676,-6.5763,-6.5787,-6.5916,-6.577,-6.5899,-6.5904,-6.5883,-6.6174,-6.6219,-6.6439,-6.6078,-6.6083,-6.6087,0,-6.5122,-6.5206,-6.5427,-6.5492,-6.5536,-6.5637,-6.573,-6.5818,-6.5885,-6.5893,-6.5956,-6.5931,-6.6059,-6.5955,-6.6131,-6.6032,-6.6084,-6.6104,-6.6112,-6.6124,-6.6007,-6.6194,-6.6509,-6.6542,-6.6135,-6.6131,-6.6128,0,-6.5314,-6.5483,-6.5637,-6.5677,-6.5757,-6.5829,-6.5865,-6.5926,-6.5987,-6.6068,-6.6107,-6.6201,-6.6252,-6.6324,-6.6325,-6.6249,-6.6503,-6.6398,-6.6512,-6.6512,-6.6568,-6.6564,-6.6896,-6.6602,-6.6601,-6.6601,-6.66,0,-6.5572,-6.5709,-6.5724,-6.5819,-6.597,-6.5964,-6.6114,-6.6142,-6.6197,-6.6295,-6.6258,-6.635,-6.6346,-6.6439,-6.644,-6.6586,-6.6609,-6.6618,-6.6617,-6.6622,-6.6621,-6.6656,-6.664,-6.6609,-6.6607,-6.6606,-6.6604,0,-6.5813,-6.5829,-6.5993,-6.6056,-6.6075,-6.6184,-6.6236,-6.6325,-6.6341,-6.6466,-6.6495,-6.652,-6.6628,-6.6636,-6.676,-6.6761,-6.6937,-6.6919,-6.6916,-6.6913,-6.7026,-6.7015,-6.7392,-6.7441,-6.7114,-6.7118,-6.712,0,-6.5976,-6.6081,-6.6156,-6.622,-6.6261,-6.6364,-6.6427,-6.6424,-6.6491,-6.6576,-6.6655,-6.6759,-6.6843,-6.7017,-6.7045,-6.714,-6.7124,-6.7249,-6.7137,-6.7139,-6.7126,-6.712,-6.713,-6.7271,-6.7274,-6.7277,-6.728,0,-6.6265,-6.6268,-6.6362,-6.6459,-6.6535,-6.6611,-6.6681,-6.6735,-6.674,-6.6817,-6.6928,-6.6994,-6.7121,-6.7225,-6.7318,-6.7353,-6.7318,-6.7315,-6.7346,-6.7352,-6.7346,-6.7351,-6.6975,-6.7306,-6.7304,-6.7302,-6.73,-6.7299,-6.6473,-6.6563,-6.663,-6.6736,-6.6789,-6.6855,-6.6943,-6.6971,-6.7064,-6.7169,-6.7161,-6.7284,-6.7347,-6.7468,-6.7511,-6.7605,-6.7562,-6.7608,-6.7619,-6.7631,-6.7643,-6.7332,-6.7622,-6.7621,-6.762,-6.762,-6.7619,0,-6.6759,-6.68,-6.6897,-6.6998,-6.7081,-6.7042,-6.7118,-6.7189,-6.7298,-6.7361,-6.7445,-6.7573,-6.7673,-6.771,-6.7808,-6.7876,-6.7863,-6.7902,-6.7897,-6.7905,-6.7675,-6.7639,-6.7912,-6.7912,-6.7912,-6.7912,-6.7911,-6.7911,-6.6919,-6.707,-6.7081,-6.7258,-6.7297,-6.7419,-6.7466,-6.7527,-6.7577,-6.7722,-6.7806,-6.783,-6.7882,-6.7983,-6.8074,-6.8081,-6.8119,-6.8166,-6.8167,-6.7951,-6.7922,-6.7894,-6.7859,-6.8174,-6.8174,-6.8389,-6.8391,-6.8393]}]]